Чохатаури

Грузия     42°00′51″N   42°14′23″E
темп.,
°C
ветер,
м/с
пор.,
м/с
влажн.,
%
обл.,
%
осадки,
мм/ч
давл.,
гПа
погр.,
м
24 октября, вс
вс2401:00+11ююв22530 0.0 102217
04:00+10ююв22535 0.0 102216
07:00+10ююв22575 0.0 102217
10:00+14ссв1153100 0.0 1021161
13:00+17с2155100 0.0 1020446
16:00+17с115689 0.0 1018390
19:00+12ююв217698 0.0 101912
22:00+11ю227448 0.0 102117
25 октября, пн
пн2501:00+10ю227888 0.0 102218
04:00+10ююз1188100 1.6 102117
07:00+9зюз5998100 21.6 1025730
10:00+9з4987100 24.1 1028946
13:00+9юз4783100 1.0 1028904
16:00+8з3789100 2.7 1029741
19:00+7ю239189 3.1 1030122
22:00+7ю228971 4.0 103089
26 октября, вт
вт2601:00+7ю2286100 0.4 103032
04:00+6ююв239075 0.8 103065
07:00+4юв22855 0.0 103026
10:00+9св12724 0.0 1030308
13:00+12с32561 0.0 1028845
16:00+11с22611 0.0 1026580
19:00+7юв22791 0.0 102617
22:00+6юв22700 0.0 102618
27 октября, ср
ср2701:00+6юв22650 0.0 102516
04:00+6юв22620 0.0 102424
07:00+5юв22590 0.0 102427
10:00+10св11520 0.0 1023200
13:00+14с11510 0.0 1022417
16:00+15с11570 0.0 1020351
19:00+10ююв22750 0.0 102119
22:00+9юв22640 0.0 102220
28 октября, чт
чт2801:00+8юв22610 0.0 102224
04:00+8юв22600 0.0 102220
07:00+8ююв22600 0.0 102317
10:00+12ссз11540 0.0 1024168
13:00+15сз22530 0.0 1023517
16:00+14зсз22580 0.0 1023547
19:00+9ююв21850 0.0 102413
22:00+8ююв21830 0.0 102413